Alexandria Esle, LA

5:22 PM CST on November 23, 2017 (GMT -0600)
Alexandria Esler Regional

Weather History for KESF - October, 2013

Change the Weather History Date:

Friday, October 4, 2013

  Actual Average Record
Temperature  
Mean Temperature 82 °F -  
Max Temperature 91 °F 84 °F 91 °F (2005)
Min Temperature 72 °F 58 °F 39 °F (2010)
Cooling Degree Days 16    
Growing Degree Days 32 (Base 50)    
Moisture  
Dew Point 73 °F    
Average Humidity 80    
Maximum Humidity 94    
Minimum Humidity 55    
Precipitation  
Precipitation 0.00 in - - ()
Sea Level Pressure  
Sea Level Pressure 29.97 in    
Wind  
Wind Speed 4 mph (SE)    
Max Wind Speed 12 mph    
Max Gust Speed 18 mph    
Visibility 9 miles    
Events Rain    
Averages and records for this station are not official NWS values.
T = Trace of Precipitation, MM = Missing Value Source: NWS Daily Summary

Daily Weather History Graph

Daily Weather History Graph

Search for Another Location

Airport or City:

Trip Planner

Search our weather history database for the weather conditions in past years. The results will help you decide how hot, cold, wet, or windy it might be!

Date:

Astronomy

Oct. 04, 2013 Rise Set
Actual Time 7:05 AM CDT 6:50 PM CDT
Civil Twilight 6:40 AM CDT 7:14 PM CDT
Nautical Twilight 6:12 AM CDT 7:42 PM CDT
Astronomical Twilight 5:44 AM CDT 8:10 PM CDT
Moon 6:40 AM CDT (10/4) 6:35 PM CDT (10/4)
Length of Visible Light 12h 33m
Length of Day
11h 45m
Waning Crescent, 0% of the Moon is Illuminated
Oct 4
Waning Crescent
Oct 4
New
Oct 11
First Quarter
Oct 18
Full
Oct 26
Last Quarter

Hourly Weather History & Observations

Time (CDT) Temp. Heat Index Dew Point Humidity Pressure Visibility Wind Dir Wind Speed Gust Speed Precip Events Conditions
12:53 AM 75.9 °F - 72.0 °F 87% 29.96 in 10.0 mi SE 4.6 mph - N/A   Clear
1:53 AM 75.0 °F - 72.0 °F 90% 29.96 in 10.0 mi Calm Calm - N/A   Clear
2:34 AM 73.4 °F - 71.6 °F 94% 29.96 in 4.0 mi Calm Calm - N/A   Mostly Cloudy
2:53 AM 75.9 °F - 73.0 °F 91% 29.95 in 10.0 mi SE 4.6 mph - N/A   Overcast
3:53 AM 75.9 °F - 73.0 °F 91% 29.94 in 10.0 mi Calm Calm - N/A   Overcast
4:53 AM 75.9 °F - 73.0 °F 91% 29.94 in 10.0 mi Calm Calm - N/A   Overcast
5:53 AM 75.9 °F - 73.0 °F 91% 29.94 in 7.0 mi Calm Calm - N/A   Overcast
6:53 AM 75.9 °F - 73.0 °F 91% 29.96 in 8.0 mi Calm Calm - N/A   Overcast
7:53 AM 77.0 °F - 73.0 °F 88% 29.98 in 10.0 mi Calm Calm - N/A   Overcast
8:53 AM 78.1 °F - 73.9 °F 87% 29.99 in 9.0 mi ESE 4.6 mph - 0.00 in Rain Light Rain
9:02 AM 78.8 °F - 73.4 °F 83% 30.00 in 10.0 mi ESE 5.8 mph - 0.00 in   Overcast
9:46 AM 80.6 °F 85.4 °F 73.4 °F 79% 30.00 in 10.0 mi SSE 9.2 mph - 0.00 in   Overcast
9:53 AM 81.0 °F 86.2 °F 73.9 °F 79% 30.00 in 10.0 mi ESE 9.2 mph - 0.00 in   Overcast
10:40 AM 82.4 °F 88.2 °F 73.4 °F 74% 30.00 in 10.0 mi ESE 10.4 mph - 0.00 in   Overcast
10:53 AM 84.0 °F 91.2 °F 73.9 °F 72% 30.00 in 10.0 mi SE 6.9 mph - 0.00 in   Overcast
11:53 AM 87.1 °F 94.5 °F 73.0 °F 63% 29.99 in 10.0 mi SSE 11.5 mph - N/A   Mostly Cloudy
12:53 PM 88.0 °F 95.6 °F 73.0 °F 61% 29.97 in 10.0 mi SE 10.4 mph - N/A   Mostly Cloudy
1:53 PM 90.0 °F 96.9 °F 72.0 °F 55% 29.95 in 10.0 mi SSE 10.4 mph - N/A   Scattered Clouds
2:53 PM 90.0 °F 96.9 °F 72.0 °F 55% 29.94 in 10.0 mi ESE 9.2 mph - N/A   Mostly Cloudy
3:53 PM 89.1 °F 96.0 °F 72.0 °F 57% 29.92 in 10.0 mi SE 6.9 mph - N/A   Partly Cloudy
4:53 PM 86.0 °F 93.0 °F 73.0 °F 65% 29.94 in 10.0 mi Variable 3.5 mph - N/A   Mostly Cloudy
5:53 PM 84.9 °F 92.1 °F 73.9 °F 69% 29.95 in 10.0 mi SSE 10.4 mph 18.4 mph N/A   Partly Cloudy
6:53 PM 80.1 °F 84.2 °F 73.0 °F 79% 29.96 in 10.0 mi Calm Calm - N/A   Partly Cloudy
7:53 PM 77.0 °F - 73.0 °F 88% 29.96 in 10.0 mi Calm Calm - N/A   Clear
8:53 PM 77.0 °F - 73.0 °F 88% 29.98 in 10.0 mi Calm Calm - N/A   Clear
9:53 PM 77.0 °F - 71.1 °F 82% 29.99 in 10.0 mi SSE 3.5 mph - N/A   Clear
10:53 PM 75.0 °F - 70.0 °F 84% 29.98 in 10.0 mi Calm Calm - N/A   Clear
11:53 PM 72.0 °F - 70.0 °F 93% 29.97 in 2.5 mi ESE 3.5 mph - N/A   Clear